Temp
-2 -2 -3 -3 -3 -3 -3 -3 -3 -3 -3 -3 -3 -3 -3 -3 -3 -3 -4 -4 -4 -5 -5 -5 -5 -5 -5 -5 -6 -6 -7 -8 -7 -6 -6 -5 -5 -5 -5 -5 -6 -6 -6 -6 -6
-3 -3 -3 -3 -3 -3 -3 -3 -3 -3 -3 -3 -3 -3 -3 -3 -3 -3 -3 -4 -4 -5 -5 -5 -4 -5 -6 -6 -7 -7 -8 -7 -7 -6 -6 -6 -5 -5 -5 -6 -6 -6 -6 -6 -6
-3 -3 -3 -3 -3 -3 -3 -3 -3 -3 -3 -3 -3 -3 -3 -3 -3 -3 -3 -4 -4 -5 -5 -5 -4 -5 -7 -7 -7 -7 -8 -6 -6 -6 -6 -6 -6 -6 -6 -6 -6 -6 -6 -6 -6
-3 -4 -4 -4 -4 -4 -3 -4 -4 -4 -3 -3 -3 -3 -3 -3 -3 -3 -3 -4 -4 -5 -5 -5 -5 -7 -7 -6 -7 -7 -6 -6 -6 -6 -6 -6 -7 -7 -7 -6 -6 -6 -6 -6 -6
-3 -4 -4 -4 -4 -4 -4 -4 -4 -4 -4 -4 -4 -3 -3 -3 -3 -3 -3 -4 -4 -5 -5 -5 -7 -7 -7 -7 -7 -7 -6 -5 -5 -6 -6 -6 -7 -6 -6 -6 -7 -6 -6 -6 -6
-4 -4 -4 -4 -4 -4 -4 -4 -4 -4 -4 -4 -4 -4 -4 -3 -3 -3 -3 -4 -4 -4 -5 -5 -5 -5 -7 -7 -6 -6 -5 -5 -5 -6 -6 -6 -6 -5 -6 -6 -7 -7 -6 -6 -6
-4 -4 -4 -4 -5 -4 -4 -4 -4 -4 -4 -4 -4 -4 -4 -3 -4 -4 -3 -4 -4 -4 -4 -5 -5 -5 -7 -7 -5 -6 -6 -6 -5 -6 -6 -6 -5 -5 -6 -6 -7 -7 -7 -6 -6
-5 -5 -5 -4 -5 -5 -5 -5 -4 -4 -4 -4 -4 -4 -4 -4 -4 -4 -4 -4 -4 -4 -4 -4 -5 -4 -5 -5 -5 -7 -7 -5 -5 -6 -5 -4 -5 -6 -5 -6 -6 -7 -7 -7 -7
-5 -5 -5 -5 -5 -5 -5 -5 -5 -5 -5 -4 -4 -4 -4 -4 -4 -4 -4 -4 -4 -4 -4 -4 -5 -5 -7 -7 -6 -5 -6 -6 -6 -6 -5 -6 -6 -6 -5 -6 -6 -6 -7 -6 -6
-6 -6 -6 -5 -5 -5 -5 -5 -5 -5 -5 -5 -4 -4 -4 -4 -4 -4 -4 -4 -4 -4 -4 -4 -5 -6 -7 -6 -6 -6 -5 -6 -6 -7 -6 -6 -6 -6 -6 -6 -6 -6 -6 -6 -5
-6 -6 -6 -6 -6 -6 -5 -5 -5 -5 -5 -5 -4 -4 -4 -4 -4 -4 -4 -4 -4 -4 -4 -5 -6 -7 -6 -6 -6 -6 -6 -6 -6 -6 -5 -7 -7 -6 -6 -5 -6 -6 -6 -6 -5
-7 -7 -7 -6 -6 -6 -6 -5 -5 -5 -5 -5 -5 -5 -4 -4 -5 -5 -5 -4 -4 -4 -4 -6 -5 -7 -6 -6 -5 -7 -6 -6 -6 -6 -5 -6 -6 -7 -6 -6 -6 -6 -6 -6 -6
-7 -7 -7 -7 -7 -7 -6 -6 -6 -5 -5 -5 -5 -5 -5 -5 -5 -5 -5 -5 -5 -5 -5 -5 -7 -7 -6 -7 -6 -7 -6 -6 -6 -6 -6 -6 -6 -6 -7 -6 -5 -6 -6 -6 -6
-7 -7 -7 -7 -7 -7 -7 -6 -6 -6 -6 -5 -5 -5 -5 -5 -5 -4 -5 -5 -5 -5 -5 -7 -7 -7 -7 -7 -7 -6 -6 -7 -6 -6 -6 -6 -5 -6 -6 -7 -5 -6 -6 -6 -6
-7 -7 -7 -7 -8 -8 -7 -7 -7 -7 -6 -5 -5 -4 -5 -5 -5 -4 -5 -5 -5 -5 -5 -6 -7 -7 -7 -7 -7 -7 -7 -6 -7 -6 -6 -5 -5 -6 -5 -6 -5 -6 -6 -7 -6
-7 -7 -7 -8 -8 -8 -8 -8 -8 -8 -8 -6 -5 -5 -5 -5 -5 -5 -5 -5 -5 -6 -6 -6 -7 -7 -7 -7 -7 -7 -7 -7 -6 -7 -6 -6 -6 -6 -4 -6 -5 -6 -7 -7 -7
-7 -7 -7 -8 -8 -8 -9 -9 -9 -8 -8 -7 -6 -5 -5 -5 -5 -5 -5 -5 -5 -5 -5 -5 -6 -5 -5 -6 -7 -7 -7 -7 -6 -5 -5 -6 -6 -6 -6 -5 -6 -7 -7 -7 -7
-8 -8 -8 -8 -8 -9 -9 -9 -9 -10 -10 -7 -7 -6 -6 -6 -5 -5 -5 -5 -5 -6 -7 -6 -6 -5 -5 -5 -7 -7 -7 -6 -6 -5 -5 -6 -6 -6 -5 -6 -6 -7 -7 -7 -7
-8 -8 -8 -9 -9 -9 -9 -9 -10 -11 -10 -8 -7 -7 -7 -6 -6 -5 -5 -5 -5 -6 -7 -7 -7 -7 -6 -6 -7 -7 -7 -6 -6 -5 -5 -5 -6 -6 -6 -5 -6 -6 -7 -7 -7
-9 -9 -9 -9 -9 -9 -9 -10 -11 -10 -8 -9 -9 -8 -9 -7 -6 -6 -6 -6 -6 -6 -6 -7 -7 -7 -7 -6 -6 -6 -6 -6 -6 -5 -5 -6 -5 -5 -6 -6 -6 -6 -7 -7 -7
-9 -9 -9 -9 -9 -10 -10 -11 -11 -10 -10 -10 -10 -8 -9 -9 -7 -8 -7 -7 -6 -7 -5 -6 -7 -7 -8 -7 -5 -7 -7 -7 -6 -5 -5 -4 -4 -5 -6 -6 -6 -7 -7 -7 -7
-9 -10 -10 -10 -10 -10 -11 -11 -10 -10 -10 -10 -9 -9 -8 -9 -7 -8 -9 -9 -7 -7 -6 -6 -7 -7 -7 -8 -6 -7 -7 -7 -6 -6 -5 -5 -5 -6 -6 -6 -6 -6 -7 -7 -7
-9 -10 -10 -10 -11 -11 -11 -11 -11 -11 -10 -11 -10 -10 -9 -9 -8 -8 -10 -10 -6 -6 -7 -6 -6 -8 -7 -7 -7 -7 -7 -7 -6 -6 -6 -5 -5 -6 -6 -6 -6 -6 -6 -7 -7
-9 -10 -10 -11 -11 -11 -12 -12 -12 -12 -11 -11 -11 -11 -10 -9 -9 -9 -9 -8 -7 -7 -7 -7 -8 -8 -7 -7 -7 -8 -6 -7 -7 -6 -5 -5 -6 -7 -6 -6 -7 -6 -7 -7 -7
-10 -10 -10 -11 -11 -12 -12 -13 -13 -13 -12 -11 -11 -11 -10 -11 -10 -11 -10 -11 -8 -8 -8 -7 -7 -8 -8 -8 -7 -7 -7 -6 -7 -7 -6 -6 -6 -6 -6 -7 -6 -7 -7 -7 -7
-10 -10 -10 -11 -12 -12 -13 -14 -14 -14 -14 -14 -12 -12 -11 -11 -12 -11 -11 -11 -11 -9 -8 -8 -7 -9 -9 -8 -8 -8 -8 -7 -8 -7 -7 -7 -7 -6 -7 -7 -7 -7 -7 -8 -8
-10 -10 -11 -11 -12 -13 -13 -13 -14 -14 -13 -12 -13 -12 -11 -11 -11 -11 -10 -10 -11 -11 -10 -10 -9 -10 -9 -9 -8 -7 -7 -8 -8 -7 -7 -7 -7 -7 -7 -7 -7 -7 -7 -8 -8
Height
5894 5896 5899 5901 5904 5906 5907 5910 5911 5912 5913 5915 5916 5916 5917 5917 5917 5917 5918 5919 5920 5919 5919 5919 5919 5919 5920 5919 5920 5919 5927 5923 5918 5914 5909 5904 5902 5900 5898 5895 5893 5891 5890 5890 5888
5891 5894 5897 5899 5902 5904 5906 5908 5910 5911 5912 5915 5916 5917 5917 5917 5918 5919 5919 5920 5920 5921 5921 5921 5920 5923 5925 5926 5926 5931 5926 5921 5919 5917 5912 5908 5905 5902 5900 5898 5896 5894 5893 5892 5891
5889 5892 5894 5897 5899 5902 5904 5906 5908 5910 5912 5913 5915 5917 5918 5918 5919 5919 5920 5920 5921 5921 5922 5922 5924 5926 5935 5934 5934 5929 5926 5924 5921 5919 5916 5910 5907 5904 5902 5902 5900 5898 5898 5896 5894
5885 5888 5891 5894 5896 5899 5902 5904 5906 5908 5909 5912 5914 5916 5917 5918 5920 5920 5920 5921 5921 5922 5923 5924 5926 5935 5939 5937 5933 5928 5925 5925 5922 5920 5917 5914 5911 5911 5909 5908 5905 5902 5900 5898 5896
5882 5884 5887 5890 5893 5896 5898 5901 5904 5906 5907 5909 5912 5914 5916 5918 5920 5921 5921 5922 5922 5923 5923 5924 5928 5933 5941 5938 5936 5932 5929 5927 5924 5922 5920 5918 5915 5914 5912 5910 5907 5904 5902 5901 5898
5879 5880 5883 5886 5889 5892 5894 5897 5900 5903 5905 5907 5909 5912 5914 5917 5918 5920 5922 5922 5922 5923 5924 5925 5927 5930 5935 5937 5935 5932 5930 5929 5927 5925 5923 5921 5918 5916 5915 5913 5910 5907 5905 5903 5902
5875 5877 5878 5881 5884 5887 5890 5893 5896 5899 5901 5904 5906 5909 5912 5916 5916 5919 5921 5922 5922 5923 5924 5925 5927 5928 5933 5934 5932 5932 5933 5933 5931 5928 5924 5916 5917 5921 5919 5916 5913 5910 5908 5905 5904
5869 5872 5874 5876 5879 5882 5885 5888 5891 5895 5897 5900 5902 5905 5909 5912 5914 5916 5920 5921 5922 5923 5924 5924 5926 5929 5930 5933 5933 5933 5934 5932 5934 5931 5927 5922 5923 5924 5923 5919 5915 5913 5911 5908 5907
5863 5866 5869 5872 5874 5877 5880 5883 5886 5889 5893 5896 5899 5901 5904 5909 5912 5914 5917 5920 5921 5921 5923 5924 5926 5928 5933 5934 5938 5935 5924 5937 5936 5932 5930 5928 5927 5925 5924 5921 5918 5916 5914 5911 5908
5857 5860 5863 5866 5869 5872 5875 5877 5881 5884 5887 5891 5894 5897 5899 5903 5908 5911 5914 5917 5920 5921 5922 5924 5925 5928 5933 5940 5939 5925 5942 5938 5939 5934 5931 5929 5927 5926 5925 5923 5921 5918 5915 5913 5910
5851 5853 5856 5859 5863 5867 5870 5872 5876 5878 5881 5884 5888 5890 5896 5900 5903 5907 5910 5913 5916 5919 5921 5923 5925 5930 5937 5940 5937 5937 5939 5939 5937 5933 5932 5933 5931 5927 5925 5923 5922 5920 5917 5914 5913
5846 5847 5849 5852 5856 5860 5863 5866 5869 5873 5876 5878 5882 5885 5890 5893 5897 5902 5906 5909 5912 5916 5918 5921 5922 5929 5935 5933 5933 5935 5938 5938 5936 5932 5933 5935 5932 5929 5924 5923 5922 5920 5918 5914 5913
5841 5842 5844 5845 5848 5852 5856 5860 5863 5867 5870 5872 5876 5879 5883 5888 5892 5895 5900 5905 5908 5911 5914 5917 5925 5924 5932 5930 5930 5934 5937 5938 5934 5932 5933 5933 5925 5925 5925 5924 5922 5920 5918 5915 5912
5836 5837 5838 5840 5842 5843 5848 5853 5857 5861 5865 5867 5870 5872 5878 5882 5885 5889 5894 5900 5902 5907 5911 5914 5920 5925 5926 5925 5929 5934 5934 5931 5930 5931 5934 5928 5928 5921 5907 5920 5922 5920 5918 5915 5912
5830 5831 5832 5834 5835 5836 5840 5845 5851 5855 5860 5858 5864 5869 5872 5878 5878 5883 5889 5892 5897 5903 5905 5910 5913 5917 5918 5922 5926 5930 5929 5927 5926 5927 5930 5933 5928 5917 5919 5914 5918 5919 5918 5915 5913
5825 5825 5827 5828 5829 5831 5833 5838 5843 5850 5852 5851 5858 5862 5866 5870 5873 5876 5881 5886 5893 5896 5899 5904 5909 5911 5914 5917 5920 5924 5924 5924 5924 5927 5929 5925 5924 5916 5913 5909 5917 5917 5916 5915 5911
5819 5819 5820 5822 5824 5825 5827 5831 5838 5841 5843 5846 5851 5856 5860 5864 5867 5870 5876 5879 5884 5889 5894 5899 5900 5904 5907 5910 5915 5918 5921 5923 5926 5927 5927 5917 5911 5920 5915 5917 5917 5916 5915 5914 5910
5813 5813 5814 5816 5817 5820 5822 5826 5830 5834 5836 5838 5846 5850 5855 5858 5862 5865 5869 5873 5878 5884 5891 5893 5896 5898 5902 5905 5912 5914 5917 5920 5923 5923 5917 5905 5915 5920 5916 5916 5914 5913 5913 5912 5911
5808 5807 5808 5810 5811 5814 5817 5820 5825 5828 5827 5835 5841 5845 5848 5851 5856 5859 5863 5868 5873 5878 5884 5894 5894 5899 5896 5900 5904 5911 5910 5915 5918 5920 5918 5910 5913 5896 5908 5912 5910 5910 5910 5910 5909
5805 5804 5803 5804 5805 5808 5811 5815 5817 5817 5824 5830 5835 5838 5846 5846 5850 5853 5858 5862 5867 5870 5877 5886 5891 5893 5893 5893 5896 5901 5911 5912 5912 5915 5915 5912 5918 5916 5907 5906 5908 5906 5907 5907 5907
5803 5801 5799 5799 5800 5802 5806 5810 5810 5813 5816 5821 5825 5831 5836 5839 5843 5849 5853 5856 5860 5863 5871 5877 5882 5888 5887 5885 5891 5895 5898 5903 5908 5912 5913 5915 5914 5901 5890 5897 5907 5904 5904 5904 5904
5800 5799 5796 5795 5797 5797 5799 5802 5801 5806 5810 5813 5818 5824 5828 5830 5838 5842 5849 5850 5851 5857 5863 5869 5877 5878 5882 5883 5884 5890 5893 5896 5902 5906 5909 5909 5905 5894 5896 5889 5900 5902 5901 5901 5901
5798 5795 5793 5791 5791 5791 5792 5794 5796 5798 5803 5807 5812 5816 5820 5825 5832 5835 5840 5842 5842 5851 5856 5862 5865 5872 5876 5880 5878 5880 5886 5892 5895 5902 5903 5906 5910 5895 5897 5895 5897 5899 5899 5898 5897
5796 5793 5790 5788 5787 5786 5786 5788 5789 5791 5796 5800 5805 5809 5814 5819 5824 5828 5832 5834 5839 5844 5847 5853 5858 5863 5871 5876 5880 5875 5877 5883 5890 5894 5899 5901 5902 5893 5895 5892 5893 5894 5895 5894 5894
5794 5791 5788 5786 5782 5781 5780 5780 5782 5784 5790 5792 5798 5802 5808 5813 5818 5823 5826 5829 5832 5837 5842 5847 5851 5856 5862 5867 5872 5873 5874 5873 5877 5884 5889 5896 5897 5898 5893 5889 5890 5889 5890 5889 5890
5791 5788 5785 5782 5780 5777 5776 5776 5777 5781 5782 5785 5792 5795 5799 5804 5812 5818 5823 5825 5832 5831 5836 5840 5844 5848 5852 5858 5861 5863 5865 5871 5871 5875 5878 5884 5887 5893 5887 5880 5884 5884 5885 5885 5885
5787 5785 5781 5780 5777 5775 5773 5773 5774 5775 5777 5779 5782 5784 5788 5796 5797 5803 5807 5812 5818 5824 5829 5835 5838 5841 5846 5850 5853 5854 5858 5862 5865 5870 5872 5875 5880 5883 5885 5874 5879 5879 5880 5880 5880
Wind_Speed
24 23 22 20 18 17 15 14 11 8 6 7 7 7 7 8 8 9 10 8 9 12 12 13 15 16 17 25 30 29 7 14 17 15 18 18 18 16 16 18 21 17 15 9 9
24 25 24 22 21 19 18 17 15 12 9 7 7 7 6 7 7 9 12 10 9 11 12 11 13 15 17 16 25 7 10 14 17 15 20 25 24 18 20 19 21 20 18 14 9
25 27 26 24 23 22 21 19 17 16 13 10 7 7 6 7 9 9 11 11 9 10 12 9 10 14 6 10 9 10 12 14 16 18 20 28 31 32 28 25 20 20 19 16 11
23 26 27 27 25 24 23 22 20 18 16 14 11 9 7 6 6 9 11 12 10 10 12 10 13 12 9 1 12 4 13 14 15 17 23 24 30 30 30 27 21 18 20 22 16
19 25 27 28 27 26 25 23 23 22 20 18 15 12 10 8 8 8 11 13 12 10 11 10 13 18 4 3 8 2 10 11 12 14 17 21 25 24 26 26 29 19 19 19 20
20 21 27 29 29 28 26 26 25 26 24 22 19 16 14 11 10 10 10 13 13 11 12 11 11 10 8 8 3 8 7 8 9 11 15 18 20 23 26 27 27 26 22 20 16
24 23 23 28 30 30 29 28 27 27 27 26 24 21 19 12 13 12 11 11 12 13 12 11 10 11 8 4 3 5 9 10 5 8 9 3 20 21 23 24 23 26 21 23 21
29 27 25 25 29 31 31 31 29 28 29 29 29 27 22 20 17 16 14 13 13 13 12 11 11 6 9 7 6 6 10 5 6 4 7 11 14 16 20 24 19 20 18 16 20
34 32 30 28 26 29 32 32 31 30 29 30 31 31 28 23 22 19 17 16 16 14 13 13 13 10 6 5 4 8 11 1 11 2 5 8 6 12 16 20 24 14 16 16 16
32 37 34 32 29 28 29 32 33 33 32 30 31 32 32 29 24 22 20 18 17 18 16 14 15 10 4 4 14 8 5 8 2 7 2 5 6 11 13 15 21 17 13 12 14
21 33 38 37 34 31 30 30 32 35 34 35 33 34 29 28 28 26 24 22 22 22 20 17 19 13 10 10 16 7 10 8 8 6 4 7 5 8 11 13 17 18 11 14 19
20 19 31 39 39 35 33 32 31 32 34 36 35 35 30 30 29 28 26 24 23 21 22 21 20 15 14 22 24 10 8 6 12 10 9 6 9 7 11 10 11 14 16 17 21
22 21 19 27 37 40 37 34 32 31 32 35 36 36 36 32 30 30 28 25 24 25 23 22 19 18 17 22 19 12 9 11 16 10 9 8 21 23 5 8 11 10 16 18 23
21 22 22 21 25 37 41 37 34 32 31 34 35 38 36 35 35 34 29 28 28 26 24 24 23 19 23 21 17 12 16 20 18 11 14 17 17 22 8 11 17 11 11 16 26
21 21 22 23 22 26 36 39 35 33 27 37 34 34 36 35 39 37 33 33 29 26 28 25 27 25 26 22 18 19 21 27 21 15 12 12 15 13 23 2 19 11 10 17 23
19 22 22 23 22 21 27 35 35 32 26 37 33 33 35 36 36 39 37 36 31 31 32 28 22 27 27 24 21 20 23 19 17 15 15 20 5 9 26 4 15 10 10 16 23
19 21 22 22 23 22 21 29 32 31 34 36 31 32 32 36 38 38 35 38 35 33 32 29 35 28 30 28 25 23 20 18 14 14 19 20 14 13 15 11 10 7 10 14 24
17 19 22 22 22 23 22 24 32 30 27 40 32 29 30 33 36 38 37 39 37 35 27 28 31 32 30 28 23 23 21 21 18 13 30 20 8 19 25 20 12 9 11 16 19
13 16 17 20 22 23 23 23 21 23 38 36 32 29 30 33 35 37 37 38 37 37 32 24 26 21 28 28 27 21 25 20 23 21 28 28 21 7 20 18 9 9 10 13 16
12 13 13 16 21 23 24 23 25 35 36 35 29 31 19 32 32 35 35 35 37 38 38 27 23 26 26 29 33 30 20 19 22 24 25 15 20 20 29 30 14 8 7 11 11
13 14 15 15 17 22 22 23 29 27 30 33 34 36 32 25 33 25 31 33 35 36 33 36 26 22 29 29 28 29 30 26 18 22 20 20 21 31 19 4 12 5 7 9 12
16 14 13 15 16 19 23 25 33 30 30 32 35 37 38 37 32 30 19 26 34 35 31 33 29 28 29 23 27 25 27 27 24 23 21 24 32 28 20 5 15 17 11 12 14
18 17 14 12 13 16 24 28 29 32 32 32 32 35 38 37 34 34 24 24 41 30 33 31 36 28 25 25 23 29 25 25 25 22 25 21 15 28 28 33 24 20 18 16 16
17 17 16 13 12 14 20 26 30 32 33 35 34 34 35 35 33 35 36 35 34 30 33 33 30 28 26 23 23 27 29 31 26 25 25 23 26 25 30 34 27 26 20 18 18
15 15 16 15 14 14 16 23 28 30 29 34 34 35 34 32 30 27 32 24 30 30 29 31 31 29 24 25 22 27 30 29 32 28 30 22 23 24 29 30 30 31 20 19 18
14 14 15 15 15 13 11 15 20 19 28 26 30 33 36 38 27 21 20 23 15 28 28 30 30 25 25 25 28 25 25 23 27 28 29 28 28 20 25 36 28 25 17 18 20
13 13 13 14 13 12 13 14 19 21 27 32 30 39 40 37 41 41 38 35 32 25 22 21 24 23 25 23 24 34 31 26 27 24 28 26 22 23 27 38 34 29 19 21 24
Wind_Direction
218 217 216 213 213 209 206 210 206 196 172 142 128 120 116 97 95 106 103 101 91 108 116 115 102 99 100 92 74 73 84 66 62 60 59 45 45 47 55 57 56 56 73 84 92
221 219 218 218 217 215 212 212 211 209 201 183 151 136 129 120 117 117 108 112 99 109 121 119 104 108 76 83 72 73 88 73 76 66 61 55 47 55 59 55 58 63 66 72 84
222 220 222 222 221 220 219 217 217 217 211 205 186 161 146 138 135 126 126 124 103 105 121 107 97 77 56 70 72 126 88 86 86 79 69 66 57 53 59 54 56 64 50 53 71
228 225 223 223 225 224 224 220 223 224 223 218 204 190 179 160 136 141 138 133 120 117 121 103 101 68 86 271 86 357 103 104 97 86 71 69 62 58 59 52 48 55 55 50 60
234 229 227 226 226 227 227 225 223 227 228 228 222 211 200 188 162 146 154 142 127 130 128 127 97 99 164 163 69 304 120 116 107 91 88 74 71 68 52 50 50 54 58 62 64
237 233 230 227 227 228 229 229 227 226 227 232 231 220 215 204 188 166 167 156 141 143 143 137 135 125 152 175 228 218 127 122 99 85 80 77 78 68 60 51 47 55 54 55 56
237 237 235 231 229 227 227 230 228 228 227 229 232 229 220 207 210 187 177 172 158 149 154 153 147 134 132 309 115 133 16 19 83 80 64 92 61 53 55 50 53 51 65 58 54
237 237 236 235 231 230 228 227 230 228 229 228 232 234 228 216 216 210 191 187 178 162 170 160 163 161 135 147 64 52 105 279 345 50 45 13 28 42 47 46 49 57 57 44 50
238 237 236 235 234 232 230 229 227 228 229 230 230 233 232 223 218 219 205 195 193 184 182 180 176 166 204 107 299 26 326 209 343 8 34 41 27 38 48 43 43 52 46 28 23
242 238 238 236 233 231 232 231 230 229 227 228 231 233 234 227 222 217 217 205 199 196 197 195 183 178 176 201 254 183 226 300 20 285 356 15 16 27 40 37 40 47 36 29 22
253 242 238 238 235 232 231 232 231 230 228 228 230 234 237 233 228 222 218 215 205 204 197 199 189 206 201 230 232 227 204 246 276 265 338 326 314 353 24 25 33 33 34 9 9
258 257 244 239 238 235 231 231 232 232 230 231 229 231 232 233 231 229 222 219 215 207 208 206 212 203 201 235 232 232 246 266 288 285 341 327 283 288 1 4 23 23 11 356 3
257 257 257 247 240 238 234 232 231 232 231 231 231 230 232 230 232 233 226 220 217 215 216 218 228 214 216 242 220 229 233 252 247 267 317 264 284 334 223 350 358 10 1 350 350
260 258 255 256 251 240 236 233 232 232 232 232 230 231 231 229 232 236 232 225 221 221 219 221 218 225 240 228 225 224 257 255 259 274 284 345 300 300 292 337 343 344 3 353 345
262 259 256 253 257 249 237 233 232 231 231 234 227 231 231 230 232 232 233 233 229 223 221 224 224 224 226 227 227 226 257 250 252 259 289 283 257 321 294 269 340 331 2 346 342
265 261 258 253 252 254 242 233 230 231 224 232 228 229 229 228 233 232 229 234 231 226 226 221 232 223 236 231 229 234 235 260 249 270 276 267 156 267 299 4 326 337 341 337 341
268 264 257 255 249 247 247 232 227 224 228 236 231 227 228 227 230 231 227 232 232 232 232 227 232 238 233 234 230 235 243 251 261 260 256 238 218 275 269 293 312 343 333 337 338
272 267 257 249 246 243 238 234 225 223 225 229 229 227 227 229 228 231 229 230 228 232 230 234 236 242 238 236 227 232 231 234 244 252 253 257 246 244 269 276 305 318 320 323 329
280 269 263 249 245 240 236 229 223 222 227 230 232 229 225 226 225 229 230 231 232 230 226 226 241 248 251 232 230 229 241 244 240 251 276 302 311 266 268 279 296 302 291 300 321
299 282 272 255 242 242 236 227 217 231 233 230 221 223 221 227 223 229 228 231 229 229 226 216 232 233 232 235 229 226 223 249 237 238 252 244 261 261 277 276 288 296 257 286 304
321 295 275 264 250 241 237 230 232 234 227 220 218 223 211 211 219 229 223 229 225 230 227 224 231 225 236 241 237 237 234 234 233 242 240 252 252 239 241 112 285 304 333 301 288
340 328 292 274 261 245 235 232 236 232 227 224 223 224 218 222 222 215 213 224 234 230 227 224 221 231 240 236 244 224 245 235 237 232 232 243 267 283 300 287 309 286 279 304 287
354 342 327 289 272 255 240 237 237 230 226 225 221 221 221 223 222 219 218 217 231 227 227 222 225 226 231 243 241 228 227 238 232 234 236 243 247 252 270 274 277 278 274 284 293
353 351 342 322 297 275 259 241 234 232 228 226 221 222 221 222 224 221 223 230 232 225 225 223 221 229 225 243 238 249 242 228 225 228 236 239 249 286 273 276 282 277 272 272 288
344 351 343 333 321 304 282 246 234 235 226 226 221 223 221 222 224 230 225 227 231 228 225 223 224 226 228 216 231 240 248 242 236 232 231 237 243 253 274 274 277 272 267 268 279
332 339 346 332 318 309 297 262 234 224 225 216 217 217 220 222 197 207 221 218 230 230 223 223 224 225 229 232 228 238 231 233 243 236 240 235 233 228 260 257 252 267 259 262 271
320 325 335 337 316 293 273 255 238 236 225 212 208 213 218 219 220 205 214 211 201 214 208 223 229 224 234 236 236 239 240 241 236 241 242 239 247 239 234 261 252 257 256 262 272